EN

Hourly Weather Palocabildo

Today, 22 April, Thursday

Time Temperature Precipitation Wind Pressure Humidity
00:00 +19°C° 0.4 mm 1 mps 651 mmHg 94%
01:00 +19°C° 0 mm 1 mps 651 mmHg 94%
02:00 +19°C° 0.6 mm 1 mps 651 mmHg 94%
03:00 +19°C° 0.6 mm 1 mps 650 mmHg 94%
04:00 +19°C° 0.6 mm 1 mps 650 mmHg 94%
05:00 +19°C° 0.1 mm 1 mps 651 mmHg 93%
06:00 +20°C° 0.1 mm 1 mps 651 mmHg 92%
07:00 +18°C° 0.1 mm 0 mps 652 mmHg 91%
08:00 +21°C° 0.5 mm 1 mps 652 mmHg 88%
09:00 +23°C° 0.5 mm 1 mps 653 mmHg 85%
10:00 +24°C° 0.5 mm 1 mps 653 mmHg 81%
11:00 +25°C° 0.6 mm 1 mps 653 mmHg 78%
12:00 +25°C° 0.6 mm 1 mps 652 mmHg 75%
13:00 +26°C° 0.6 mm 1 mps 651 mmHg 72%
14:00 +26°C° 0.6 mm 1 mps 651 mmHg 71%
15:00 +26°C° 0.6 mm 1 mps 650 mmHg 71%
16:00 +26°C° 0.6 mm 1 mps 650 mmHg 70%
17:00 +24°C° 0.8 mm 1 mps 650 mmHg 78%
18:00 +23°C° 0.8 mm 1 mps 650 mmHg 86%
19:00 +21°C° 0.8 mm 1 mps 650 mmHg 93%
20:00 +20°C° 1 mm 1 mps 651 mmHg 94%
21:00 +20°C° 1 mm 1 mps 651 mmHg 95%
22:00 +20°C° 1 mm 1 mps 651 mmHg 96%
23:00 +19°C° 0.7 mm 1 mps 651 mmHg 96%

Tomorrow, 23 April, Friday

Time Temperature Precipitation Wind Pressure Humidity
00:00 +19°C° 0.7 mm 1 mps 651 mmHg 96%
01:00 +19°C° 0.7 mm 1 mps 651 mmHg 96%
02:00 +19°C° 0.7 mm 1 mps 651 mmHg 96%
03:00 +19°C° 0.7 mm 1 mps 651 mmHg 96%
04:00 +19°C° 0.7 mm 1 mps 651 mmHg 96%
05:00 +19°C° 0.1 mm 1 mps 651 mmHg 95%
06:00 +20°C° 0.1 mm 1 mps 652 mmHg 94%
07:00 +20°C° 0.1 mm 1 mps 652 mmHg 93%
08:00 +21°C° 0.4 mm 1 mps 652 mmHg 90%
09:00 +22°C° 0.4 mm 1 mps 653 mmHg 86%
10:00 +23°C° 0.4 mm 1 mps 653 mmHg 83%
11:00 +24°C° 1 mm 1 mps 653 mmHg 81%
12:00 +25°C° 1 mm 1 mps 652 mmHg 79%
13:00 +25°C° 1 mm 1 mps 652 mmHg 77%
14:00 +26°C° 0.8 mm 1 mps 651 mmHg 75%
15:00 +26°C° 0.8 mm 1 mps 651 mmHg 72%
16:00 +26°C° 0.8 mm 1 mps 650 mmHg 69%
17:00 +24°C° 1.5 mm 1 mps 650 mmHg 77%
18:00 +23°C° 1.5 mm 1 mps 650 mmHg 85%
19:00 +21°C° 1.5 mm 1 mps 650 mmHg 93%
20:00 +21°C° 1.7 mm 1 mps 651 mmHg 93%
21:00 +20°C° 1.7 mm 1 mps 651 mmHg 94%
22:00 +20°C° 1.7 mm 1 mps 651 mmHg 94%
23:00 +19°C° 0.9 mm 1 mps 651 mmHg 95%

Day after tomorrow, 24 April, Saturday

Time Temperature Precipitation Wind Pressure Humidity
00:00 +19°C° 0.9 mm 1 mps 651 mmHg 95%
01:00 +19°C° 0.9 mm 1 mps 651 mmHg 96%
02:00 +19°C° 0.6 mm 1 mps 651 mmHg 96%
03:00 +19°C° 0.6 mm 1 mps 651 mmHg 96%
04:00 +18°C° 0.6 mm 1 mps 651 mmHg 96%
05:00 +19°C° 0.3 mm 1 mps 651 mmHg 95%
06:00 +19°C° 0.3 mm 1 mps 652 mmHg 94%
07:00 +20°C° 0.3 mm 1 mps 652 mmHg 93%
08:00 +21°C° 0.4 mm 1 mps 653 mmHg 88%
09:00 +23°C° 0.4 mm 1 mps 653 mmHg 84%
10:00 +24°C° 0.4 mm 1 mps 654 mmHg 80%
11:00 +25°C° 0.4 mm 1 mps 653 mmHg 75%
12:00 +26°C° 0.4 mm 1 mps 653 mmHg 70%
13:00 +27°C° 0.4 mm 1 mps 652 mmHg 64%
14:00 +26°C° 0.5 mm 1 mps 652 mmHg 70%
15:00 +26°C° 0.5 mm 1 mps 651 mmHg 75%
16:00 +25°C° 0.5 mm 1 mps 651 mmHg 80%
17:00 +24°C° 0.3 mm 1 mps 651 mmHg 84%
18:00 +22°C° 0.3 mm 1 mps 651 mmHg 89%
19:00 +21°C° 0.3 mm 1 mps 651 mmHg 94%
20:00 +20°C° 0.7 mm 1 mps 651 mmHg 94%
21:00 +20°C° 0.7 mm 1 mps 651 mmHg 95%
22:00 +19°C° 0.7 mm 1 mps 652 mmHg 95%
23:00 +19°C° 0.3 mm 1 mps 651 mmHg 95%

25 April, Sunday

Time Temperature Precipitation Wind Pressure Humidity
00:00 +19°C° 0.3 mm 1 mps 651 mmHg 95%
01:00 +19°C° 0.3 mm 1 mps 651 mmHg 95%
02:00 +19°C° 0.2 mm 1 mps 651 mmHg 94%
03:00 +18°C° 0.2 mm 1 mps 651 mmHg 94%
04:00 +18°C° 0.2 mm 1 mps 650 mmHg 94%
05:00 +19°C° 0.2 mm 1 mps 651 mmHg 93%
06:00 +20°C° 0.2 mm 1 mps 651 mmHg 91%
07:00 +18°C° 0.2 mm 0 mps 652 mmHg 90%
08:00 +22°C° 0.2 mm 1 mps 652 mmHg 82%
09:00 +24°C° 0.2 mm 1 mps 653 mmHg 75%
10:00 +26°C° 0.2 mm 1 mps 653 mmHg 68%
11:00 +26°C° 0.5 mm 1 mps 653 mmHg 68%
12:00 +26°C° 0.5 mm 1 mps 652 mmHg 69%
13:00 +27°C° 0.5 mm 1 mps 651 mmHg 70%
14:00 +27°C° 0.4 mm 1 mps 651 mmHg 71%
15:00 +26°C° 0.4 mm 1 mps 651 mmHg 72%
16:00 +26°C° 0.4 mm 1 mps 650 mmHg 73%
17:00 +24°C° 0.5 mm 1 mps 650 mmHg 79%
18:00 +23°C° 0.5 mm 1 mps 650 mmHg 85%
19:00 +21°C° 0.5 mm 1 mps 650 mmHg 91%
20:00 +21°C° 0.2 mm 1 mps 651 mmHg 92%
21:00 +20°C° 0.2 mm 1 mps 651 mmHg 92%
22:00 +18°C° 0.2 mm 2 mps 651 mmHg 93%
23:00 +18°C° 1 mm 2 mps 651 mmHg 93%

26 April, Monday

Time Temperature Precipitation Wind Pressure Humidity
00:00 +19°C° 1 mm 1 mps 651 mmHg 94%
01:00 +19°C° 1 mm 1 mps 651 mmHg 95%
02:00 +19°C° 1 mm 1 mps 650 mmHg 95%
03:00 +19°C° 1 mm 1 mps 650 mmHg 95%
04:00 +18°C° 1 mm 1 mps 650 mmHg 96%
05:00 +19°C° 0.4 mm 1 mps 650 mmHg 95%
06:00 +20°C° 0.4 mm 1 mps 651 mmHg 95%
07:00 +18°C° 0.4 mm 0 mps 651 mmHg 94%
08:00 +22°C° 0.5 mm 1 mps 652 mmHg 89%
09:00 +23°C° 0.5 mm 1 mps 652 mmHg 85%
10:00 +24°C° 0.5 mm 1 mps 653 mmHg 80%
11:00 +25°C° 0.6 mm 1 mps 652 mmHg 77%
12:00 +26°C° 0.6 mm 1 mps 652 mmHg 73%
13:00 +27°C° 0.6 mm 1 mps 651 mmHg 70%
14:00 +26°C° 0.8 mm 1 mps 651 mmHg 74%
15:00 +26°C° 0.8 mm 1 mps 650 mmHg 77%
16:00 +23°C° 0.8 mm 0 mps 649 mmHg 81%
17:00 +24°C° 1 mm 1 mps 650 mmHg 86%
18:00 +22°C° 1 mm 1 mps 650 mmHg 90%
19:00 +21°C° 1 mm 1 mps 650 mmHg 95%
20:00 +20°C° 0.6 mm 1 mps 650 mmHg 95%
21:00 +20°C° 0.6 mm 1 mps 651 mmHg 95%
22:00 +20°C° 0.6 mm 1 mps 651 mmHg 95%
23:00 +19°C° 0.6 mm 1 mps 651 mmHg 95%

27 April, Tuesday

Time Temperature Precipitation Wind Pressure Humidity
00:00 +19°C° 0.6 mm 1 mps 650 mmHg 96%
01:00 +19°C° 0.6 mm 1 mps 650 mmHg 96%
02:00 +19°C° 0.8 mm 1 mps 650 mmHg 96%
03:00 +19°C° 0.8 mm 1 mps 650 mmHg 96%
04:00 +19°C° 0.8 mm 1 mps 650 mmHg 96%
05:00 +19°C° 0.4 mm 1 mps 650 mmHg 95%
06:00 +20°C° 0.4 mm 1 mps 651 mmHg 94%
07:00 +18°C° 0.4 mm 0 mps 651 mmHg 94%
08:00 +20°C° 0.4 mm 0 mps 651 mmHg 90%
09:00 +23°C° 0.4 mm 1 mps 652 mmHg 87%
10:00 +24°C° 0.4 mm 1 mps 652 mmHg 83%
11:00 +24°C° 0.4 mm 1 mps 652 mmHg 82%
12:00 +22°C° 0.4 mm 0 mps 651 mmHg 80%
13:00 +23°C° 0.4 mm 0 mps 651 mmHg 79%
14:00 +23°C° 0.4 mm 0 mps 650 mmHg 78%
15:00 +25°C° 0.4 mm 1 mps 650 mmHg 77%
16:00 +25°C° 0.4 mm 1 mps 649 mmHg 75%
17:00 +24°C° 1.6 mm 1 mps 650 mmHg 82%
18:00 +22°C° 1.6 mm 1 mps 650 mmHg 89%
19:00 +21°C° 1.6 mm 1 mps 650 mmHg 96%
20:00 +20°C° 2 mm 1 mps 650 mmHg 97%
21:00 +20°C° 2 mm 1 mps 651 mmHg 97%
22:00 +18°C° 2 mm 0 mps 651 mmHg 98%
23:00 +18°C° 1.4 mm 0 mps 651 mmHg 98%
Show more

We Need Your Consent

Meteoprog and our Service Providers may store and access personal data such as cookies, device identifiers or other similar technologies on your device and process such data to personalise content and ads, as well as provide social media features and to analyse the traffic.

  • Store and/or access information on your device

    Cookies, device identifiers or other information can be stored or accessed on your device for the purposes indicated above.

  • Personalised ads and content, ad and content measurement, audience insights, and products development

    Ads and content can be personalised based on a profile. More data can be added to better personalise ads and content. Ad and content performance can be measured. Insights about the audience who saw the ads and content can be derived. Such data can be used to develop or improve user’s experience, systems and software.

By clicking ‘I Agree’ you will allow the use of indicated cookies, device identifiers, web beacons or other similar technologies. Your settings can be changed in the browser on your device.

For certain purposes, legitimate interests may be relied on, rather than consent. You can read more about this in our Privacy and Cookie Policy.